QPF
0.01 0.03 0.03 0.04 0.05 0.06 0.06 0.03 0.03 0.05 0.04 0.03 0.06 0.08 0.02 0.00 0.00 0.00 0.00 0.00 0.00 0.00
0.02 0.03 0.05 0.04 0.04 0.05 0.02 0.01 0.03 0.05 0.03 0.03 0.03 0.06 0.06 0.02 0.00 0.00 0.00 0.00 0.00 0.00
0.01 0.03 0.05 0.06 0.04 0.03 0.00 0.00 0.01 0.02 0.02 0.02 0.03 0.03 0.04 0.04 0.01 0.00 0.00 0.00 0.00 0.00
0.02 0.03 0.03 0.05 0.04 0.03 0.01 0.00 0.00 0.01 0.02 0.02 0.01 0.01 0.03 0.04 0.03 0.02 0.00 0.00 0.00 0.00
0.01 0.01 0.00 0.02 0.05 0.02 0.01 0.00 0.00 0.00 0.01 0.00 0.00 0.01 0.01 0.01 0.02 0.02 0.01 0.00 0.01 0.00
0.00 0.01 0.00 0.02 0.04 0.02 0.01 0.01 0.00 0.00 0.00 0.00 0.00 0.00 0.00 0.00 0.00 0.01 0.00 0.00 0.01 0.00
0.00 0.00 0.00 0.00 0.02 0.03 0.02 0.01 0.00 0.00 0.00 0.00 0.00 0.00 0.00 0.01 0.00 0.00 0.00 0.00 0.00 0.00
0.00 0.00 0.00 0.00 0.00 0.00 0.01 0.02 0.01 0.01 0.01 0.02 0.01 0.00 0.00 0.00 0.00 0.00 0.00 0.00 0.00 0.00
0.00 0.00 0.00 0.00 0.00 0.00 0.00 0.01 0.02 0.02 0.05 0.07 0.07 0.02 0.01 0.02 0.03 0.05 0.01 0.00 0.00 0.00
0.00 0.00 0.00 0.00 0.00 0.00 0.00 0.00 0.01 0.02 0.04 0.06 0.08 0.10 0.05 0.02 0.03 0.09 0.11 0.04 0.00 0.00
0.00 0.00 0.00 0.00 0.00 0.00 0.00 0.00 0.00 0.01 0.01 0.02 0.07 0.16 0.17 0.11 0.16 0.16 0.10 0.06 0.04 0.03
0.00 0.00 0.00 0.00 0.00 0.00 0.00 0.00 0.00 0.00 0.01 0.01 0.03 0.07 0.17 0.16 0.11 0.16 0.08 0.03 0.06 0.08
0.00 0.00 0.00 0.00 0.00 0.00 0.00 0.00 0.00 0.00 0.00 0.01 0.01 0.02 0.04 0.06 0.04 0.06 0.05 0.03 0.04 0.05
0.00 0.00 0.00 0.00 0.00 0.00 0.00 0.00 0.00 0.00 0.00 0.00 0.00 0.01 0.00 0.00 0.00 0.01 0.01 0.01 0.02 0.03
MSLP
1014.65 1013.63 1012.66 1011.75 1010.76 1009.67 1008.71 1007.60 1006.50 1005.72 1006.12 1006.48 1006.51 1006.51 1006.49 1006.80 1006.99 1007.16 1007.43 1007.68 1008.00 1008.27
1014.54 1013.39 1012.36 1011.28 1010.36 1009.34 1008.33 1007.25 1005.79 1005.02 1005.92 1006.17 1006.14 1006.33 1006.37 1006.29 1006.48 1006.62 1006.96 1007.22 1007.57 1007.97
1014.46 1013.36 1012.32 1011.17 1010.07 1008.92 1007.95 1007.07 1006.54 1006.13 1006.03 1005.93 1005.86 1005.84 1006.17 1006.27 1006.21 1006.31 1006.59 1006.82 1007.21 1007.51
1014.64 1013.55 1012.62 1011.51 1010.37 1009.06 1007.83 1007.27 1006.81 1006.47 1006.18 1005.93 1005.84 1005.78 1005.79 1005.82 1006.09 1006.20 1006.35 1006.60 1006.83 1007.01
1015.12 1013.93 1012.99 1011.96 1010.85 1009.69 1008.47 1007.44 1007.05 1006.69 1006.37 1006.11 1005.96 1005.86 1005.73 1005.70 1005.70 1005.89 1006.13 1006.30 1006.58 1006.72
1015.54 1014.39 1013.64 1012.57 1011.49 1010.38 1009.26 1008.15 1007.22 1006.80 1006.48 1006.16 1005.88 1005.70 1005.61 1005.51 1005.53 1005.58 1005.74 1005.87 1006.06 1006.23
1016.12 1015.08 1014.10 1013.28 1012.28 1011.15 1010.03 1008.85 1007.74 1007.08 1006.64 1006.20 1005.79 1005.57 1005.36 1005.32 1005.30 1005.50 1005.47 1005.47 1005.66 1005.81
1016.81 1015.90 1014.90 1014.00 1013.08 1012.13 1010.94 1009.82 1008.88 1007.98 1007.13 1006.17 1005.52 1004.86 1004.83 1004.82 1004.92 1005.12 1005.23 1005.36 1005.38 1005.48
1017.58 1016.65 1015.76 1014.68 1013.78 1012.91 1011.88 1010.79 1009.64 1008.60 1007.63 1006.75 1005.27 1003.41 1003.92 1003.82 1004.24 1004.81 1005.09 1005.20 1005.26 1005.43
1018.34 1017.46 1016.53 1015.56 1014.53 1013.70 1012.84 1011.84 1010.63 1009.42 1008.31 1007.22 1006.26 1005.03 1003.48 1003.24 1003.69 1004.32 1004.92 1005.12 1005.23 1005.28
1019.06 1018.23 1017.34 1016.41 1015.48 1014.52 1013.65 1012.75 1011.77 1010.76 1009.59 1008.46 1007.36 1006.56 1005.68 1005.07 1004.79 1005.10 1005.61 1005.42 1005.43 1005.39
1019.73 1018.99 1018.17 1017.26 1016.35 1015.46 1014.62 1013.68 1012.83 1011.92 1010.99 1009.92 1008.79 1008.12 1007.36 1006.83 1006.74 1006.62 1006.70 1006.69 1006.57 1006.35
1020.35 1019.62 1018.88 1018.07 1017.19 1016.36 1015.50 1014.67 1013.81 1013.06 1012.33 1011.45 1010.48 1009.51 1009.03 1008.76 1008.40 1007.88 1007.72 1007.61 1007.25 1007.03
1020.90 1020.16 1019.52 1018.67 1017.81 1017.13 1016.41 1015.67 1014.83 1014.01 1013.41 1012.77 1011.91 1010.99 1010.18 1010.05 1009.82 1009.49 1009.16 1008.84 1008.54 1008.08
Thickness
5406 5406 5408 5409 5412 5414 5414 5415 5414 5407 5392 5378 5369 5364 5364 5363 5363 5363 5363 5365 5368 5372
5402 5403 5405 5408 5411 5412 5413 5415 5416 5410 5391 5378 5368 5361 5359 5361 5360 5360 5359 5359 5360 5361
5400 5401 5404 5407 5410 5412 5414 5414 5408 5400 5391 5381 5371 5365 5359 5356 5356 5356 5355 5354 5354 5355
5399 5400 5400 5402 5404 5408 5413 5409 5404 5397 5390 5382 5374 5366 5361 5357 5353 5351 5350 5349 5349 5350
5395 5397 5396 5397 5398 5402 5407 5407 5401 5394 5389 5382 5375 5367 5362 5358 5355 5350 5347 5345 5343 5342
5394 5394 5392 5392 5394 5397 5400 5400 5399 5392 5387 5382 5376 5370 5363 5358 5353 5350 5347 5344 5338 5337
5396 5394 5392 5390 5391 5394 5394 5394 5394 5389 5384 5380 5376 5371 5365 5359 5353 5347 5346 5342 5337 5336
5396 5395 5393 5392 5391 5389 5389 5387 5383 5379 5377 5378 5378 5378 5371 5365 5359 5351 5346 5342 5340 5339
5398 5396 5392 5392 5389 5386 5383 5379 5376 5374 5372 5371 5378 5391 5382 5378 5369 5358 5350 5346 5344 5341
5399 5395 5392 5390 5388 5382 5375 5370 5367 5366 5365 5365 5367 5374 5387 5386 5378 5368 5359 5354 5349 5346
5399 5396 5391 5388 5384 5378 5370 5363 5356 5350 5351 5353 5356 5359 5367 5372 5372 5366 5360 5358 5356 5354
5400 5396 5392 5387 5381 5372 5363 5355 5347 5341 5340 5342 5345 5347 5353 5357 5357 5357 5355 5353 5352 5352
5401 5397 5391 5385 5378 5369 5359 5350 5342 5337 5334 5334 5336 5340 5342 5343 5345 5348 5349 5348 5349 5349
5403 5400 5393 5388 5381 5370 5360 5351 5344 5340 5337 5334 5333 5335 5339 5339 5338 5338 5340 5340 5340 5343